Norfolk International Airport Airport (ORF)

 

Airport Diagram
Current Weather/Forecast (MVFR Conditions)
METAR KORF 312228Z 05013G19KT 6SM -RA SCT012 BKN027 OVC090 09/07 A2978 RMK AO2 P0004 T00940067
TAF KORF 312036Z 3121/0118 07009G18KT P6SM -RA FEW016 BKN080 OVC090 FM010200 06014G21KT 3SM SHRA OVC008 FM011000 02020G30KT 4SM -RA OVC010 FM011500 02022G33KT P6SM OVC015

All Charts
General
Chart Name Download
AIRPORT DIAGRAM
TAKEOFF MINIMUMS
ALTERNATE MINIMUMS

Departures
Chart Name Download
KISRR THREE

Arrivals
Chart Name Download
DRONE TWO
DRONE TWO, CONT.1
TERKS TWO

Approaches
Chart Name Download
ILS OR LOC RWY 05
ILS OR LOC RWY 23
RNAV (RNP) Y RWY 05
RNAV (RNP) Y RWY 23
RNAV (GPS) RWY 14
RNAV (GPS) RWY 32
RNAV (GPS) Z RWY 05
RNAV (GPS) Z RWY 23
VOR/DME RWY 32
VOR RWY 14
RIVER VISUAL RWY 05


Inbound Traffic (Arrivals)

No inbound traffic.


Outbound Traffic (Departures)

No outbound traffic.